TimeMDT,TemperatureF,Dew PointF,Humidity,Sea Level PressureIn,VisibilityMPH,Wind Direction,Wind SpeedMPH,Gust SpeedMPH,PrecipitationIn,Events,Conditions,WindDirDegrees,DateUTC
12:15 AM,26.6,8.6,47,30.02,10.0,West,8.1,-,N/A,,Clear,270,2012-10-09 06:15:00
12:35 AM,26.6,8.6,47,30.03,10.0,WNW,5.8,-,N/A,,Clear,300,2012-10-09 06:35:00
12:55 AM,24.8,10.4,54,30.02,10.0,WNW,5.8,-,N/A,,Clear,300,2012-10-09 06:55:00
1:15 AM,26.6,10.4,51,30.02,10.0,NNW,6.9,-,N/A,,Clear,330,2012-10-09 07:15:00
1:35 AM,26.6,10.4,51,30.03,10.0,Calm,Calm,-,N/A,,Clear,0,2012-10-09 07:35:00
1:55 AM,28.4,10.4,47,30.03,10.0,Calm,Calm,-,N/A,,Clear,0,2012-10-09 07:55:00
2:15 AM,26.6,8.6,47,30.04,10.0,West,6.9,-,N/A,,Clear,280,2012-10-09 08:15:00
2:35 AM,24.8,10.4,54,30.03,10.0,West,6.9,-,N/A,,Clear,270,2012-10-09 08:35:00
2:55 AM,26.6,8.6,47,30.03,10.0,WNW,5.8,-,N/A,,Clear,290,2012-10-09 08:55:00
3:15 AM,24.8,8.6,50,30.03,10.0,NW,4.6,-,N/A,,Clear,310,2012-10-09 09:15:00
3:35 AM,23.0,8.6,54,30.03,10.0,WNW,5.8,-,N/A,,Clear,290,2012-10-09 09:35:00
3:55 AM,24.8,10.4,54,30.03,10.0,WNW,4.6,-,N/A,,Clear,290,2012-10-09 09:55:00
4:15 AM,26.6,8.6,47,30.03,10.0,WNW,4.6,-,N/A,,Clear,290,2012-10-09 10:15:00
4:35 AM,23.0,10.4,59,30.04,10.0,WNW,8.1,-,N/A,,Clear,300,2012-10-09 10:35:00
4:55 AM,24.8,8.6,50,30.04,10.0,West,4.6,-,N/A,,Clear,280,2012-10-09 10:55:00
5:15 AM,24.8,8.6,50,30.05,10.0,WNW,4.6,-,N/A,,Clear,290,2012-10-09 11:15:00
5:35 AM,23.0,8.6,54,30.05,10.0,Calm,Calm,-,N/A,,Clear,0,2012-10-09 11:35:00
5:55 AM,23.0,8.6,54,30.05,10.0,Calm,Calm,-,N/A,,Clear,0,2012-10-09 11:55:00
6:15 AM,21.2,8.6,58,30.06,10.0,WNW,3.5,-,N/A,,Clear,300,2012-10-09 12:15:00
6:35 AM,21.2,8.6,58,30.06,10.0,WNW,5.8,-,N/A,,Clear,300,2012-10-09 12:35:00
6:55 AM,21.2,8.6,58,30.07,10.0,Calm,Calm,-,N/A,,Clear,0,2012-10-09 12:55:00
7:15 AM,21.2,8.6,58,30.07,10.0,West,4.6,-,N/A,,Clear,280,2012-10-09 13:15:00
7:35 AM,21.2,8.6,58,30.07,10.0,WNW,6.9,-,N/A,,Clear,290,2012-10-09 13:35:00
7:55 AM,23.0,10.4,59,30.08,10.0,West,6.9,-,N/A,,Clear,280,2012-10-09 13:55:00
8:15 AM,26.6,10.4,51,30.09,10.0,Calm,Calm,-,N/A,,Clear,0,2012-10-09 14:15:00
8:35 AM,28.4,10.4,47,30.09,10.0,NW,4.6,-,N/A,,Clear,310,2012-10-09 14:35:00
8:55 AM,30.2,10.4,44,30.10,10.0,Calm,Calm,-,N/A,,Clear,0,2012-10-09 14:55:00
9:15 AM,32.0,10.4,41,30.10,10.0,Calm,Calm,-,N/A,,Clear,0,2012-10-09 15:15:00
9:35 AM,35.6,10.4,35,30.10,10.0,Calm,Calm,-,N/A,,Clear,0,2012-10-09 15:35:00
9:55 AM,41.0,12.2,31,30.10,10.0,Calm,Calm,-,N/A,,Clear,0,2012-10-09 15:55:00
10:15 AM,46.4,14.0,27,30.10,10.0,WNW,10.4,-,N/A,,Clear,290,2012-10-09 16:15:00
10:35 AM,48.2,14.0,25,30.11,10.0,West,9.2,-,N/A,,Clear,270,2012-10-09 16:35:00
10:55 AM,50.0,17.6,28,30.11,10.0,West,8.1,16.1,N/A,,Clear,270,2012-10-09 16:55:00
11:15 AM,50.0,15.8,26,30.11,10.0,WNW,4.6,-,N/A,,Clear,290,2012-10-09 17:15:00
11:35 AM,51.8,17.6,26,30.10,10.0,West,10.4,-,N/A,,Clear,280,2012-10-09 17:35:00
11:55 AM,51.8,19.4,28,30.09,10.0,WNW,11.5,17.3,N/A,,Clear,300,2012-10-09 17:55:00
12:15 PM,53.6,17.6,24,30.09,10.0,WNW,19.6,27.6,N/A,,Clear,290,2012-10-09 18:15:00
12:35 PM,53.6,17.6,24,30.09,10.0,NW,19.6,25.3,N/A,,Clear,310,2012-10-09 18:35:00
12:55 PM,53.6,17.6,24,30.09,10.0,West,19.6,27.6,N/A,,Clear,280,2012-10-09 18:55:00
1:15 PM,55.4,19.4,25,30.09,10.0,WNW,17.3,26.5,N/A,,Clear,290,2012-10-09 19:15:00
1:35 PM,55.4,19.4,25,30.09,10.0,WNW,16.1,19.6,N/A,,Clear,290,2012-10-09 19:35:00
1:55 PM,55.4,19.4,25,30.09,10.0,WNW,13.8,19.6,N/A,,Clear,290,2012-10-09 19:55:00
2:15 PM,55.4,19.4,25,30.08,10.0,WNW,12.7,19.6,N/A,,Clear,300,2012-10-09 20:15:00
2:35 PM,57.2,19.4,23,30.08,10.0,West,17.3,23.0,N/A,,Clear,270,2012-10-09 20:35:00
2:55 PM,59.0,19.4,22,30.08,10.0,West,15.0,23.0,N/A,,Clear,280,2012-10-09 20:55:00
3:15 PM,57.2,17.6,21,30.08,10.0,WNW,16.1,23.0,N/A,,Clear,300,2012-10-09 21:15:00
3:35 PM,57.2,17.6,21,30.08,10.0,West,8.1,20.7,N/A,,Clear,260,2012-10-09 21:35:00
3:55 PM,57.2,17.6,21,30.08,10.0,West,11.5,21.9,N/A,,Clear,270,2012-10-09 21:55:00
4:15 PM,57.2,17.6,21,30.09,10.0,WNW,15.0,18.4,N/A,,Clear,290,2012-10-09 22:15:00
4:35 PM,57.2,17.6,21,30.09,10.0,West,12.7,19.6,N/A,,Clear,280,2012-10-09 22:35:00
4:55 PM,57.2,17.6,21,30.09,10.0,West,13.8,17.3,N/A,,Clear,280,2012-10-09 22:55:00
5:15 PM,55.4,17.6,23,30.09,10.0,NW,16.1,20.7,N/A,,Clear,310,2012-10-09 23:15:00
5:35 PM,55.4,17.6,23,30.09,10.0,WNW,12.7,17.3,N/A,,Clear,290,2012-10-09 23:35:00
5:55 PM,55.4,17.6,23,30.09,10.0,WNW,13.8,-,N/A,,Clear,300,2012-10-09 23:55:00
6:15 PM,53.6,17.6,24,30.09,10.0,NW,10.4,-,N/A,,Clear,320,2012-10-10 00:15:00
6:35 PM,50.0,17.6,28,30.11,10.0,NW,8.1,-,N/A,,Clear,310,2012-10-10 00:35:00
6:55 PM,46.4,17.6,32,30.11,10.0,West,5.8,-,N/A,,Clear,270,2012-10-10 00:55:00
7:15 PM,42.8,17.6,36,30.11,10.0,West,8.1,-,N/A,,Clear,270,2012-10-10 01:15:00
7:35 PM,42.8,17.6,36,30.12,10.0,NNW,5.8,-,N/A,,Clear,330,2012-10-10 01:35:00
7:55 PM,41.0,17.6,39,30.13,10.0,NW,4.6,-,N/A,,Clear,310,2012-10-10 01:55:00
8:15 PM,37.4,17.6,45,30.13,10.0,WNW,5.8,-,N/A,,Clear,290,2012-10-10 02:15:00
8:35 PM,37.4,17.6,45,30.14,10.0,West,8.1,-,N/A,,Clear,280,2012-10-10 02:35:00
8:55 PM,35.6,17.6,48,30.15,10.0,NW,4.6,-,N/A,,Clear,310,2012-10-10 02:55:00
9:15 PM,33.8,17.6,52,30.15,10.0,West,4.6,-,N/A,,Clear,270,2012-10-10 03:15:00
9:35 PM,33.8,17.6,52,30.16,10.0,West,5.8,-,N/A,,Clear,280,2012-10-10 03:35:00
9:55 PM,33.8,17.6,52,30.16,10.0,NW,6.9,-,N/A,,Clear,320,2012-10-10 03:55:00
10:15 PM,33.8,17.6,52,30.16,10.0,SW,5.8,-,N/A,,Clear,230,2012-10-10 04:15:00
10:35 PM,32.0,19.4,60,30.16,10.0,WNW,4.6,-,N/A,,Clear,290,2012-10-10 04:35:00
10:55 PM,32.0,17.6,55,30.16,10.0,West,6.9,-,N/A,,Clear,280,2012-10-10 04:55:00
11:15 PM,32.0,17.6,55,30.16,10.0,WNW,6.9,-,N/A,,Clear,300,2012-10-10 05:15:00
11:35 PM,32.0,17.6,55,30.17,10.0,NNW,3.5,-,N/A,,Clear,340,2012-10-10 05:35:00
11:55 PM,30.2,17.6,60,30.17,10.0,WNW,4.6,-,N/A,,Clear,300,2012-10-10 05:55:00